This is the latest recevied weather packets stored in our database for station/object K5EAA-13. If no packets are shown the sender has not sent any weather packets the latest 10 day(s).
| Time | Temp. | Humidity | Pressure | Rain* | Wind** | Luminosity | Snow |
|---|---|---|---|---|---|---|---|
| 1787410860 | 33.89° C | 48% | 1017.3 hPa | 0 mm | - | 489 W/m² | - |
| 1787410555 | 33.89° C | 48% | 1017.1 hPa | 0 mm | - | 413 W/m² | - |
| 1787410251 | 33.33° C | 49% | 1017 hPa | 0 mm | - | 312 W/m² | - |
| 1787409947 | 32.78° C | 50% | 1017 hPa | 0 mm | - | 296 W/m² | - |
| 1787409643 | 32.78° C | 51% | 1016.8 hPa | 0 mm | - | 279 W/m² | - |
| 1787409338 | 32.22° C | 52% | 1016.9 hPa | 0 mm | - | 297 W/m² | - |
| 1787409034 | 32.22° C | 52% | 1016.8 hPa | 0 mm | - | 276 W/m² | - |
| 1787408730 | 31.67° C | 52% | 1016.9 hPa | 0 mm | - | 203 W/m² | - |
| 1787408425 | 31.67° C | 54% | 1016.8 hPa | 0 mm | - | 224 W/m² | - |
| 1787408121 | 31.67° C | 54% | 1016.7 hPa | 0 mm | - | 185 W/m² | - |
| 1787407816 | 31.67° C | 53% | 1016.6 hPa | 0 mm | - | 213 W/m² | - |
| 1787407512 | 31.67° C | 54% | 1016.7 hPa | 0 mm | - | 164 W/m² | - |
| 1787407211 | 31.67° C | 55% | 1016.6 hPa | 0 mm | - | 152 W/m² | - |
| 1787406907 | 31.67° C | 57% | 1016.8 hPa | 0 mm | - | 138 W/m² | - |
| 1787406602 | 31.67° C | 57% | 1016.8 hPa | 0 mm | - | 134 W/m² | - |
| 1787406298 | 31.11° C | 57% | 1016.8 hPa | 0 mm | - | 124 W/m² | - |
| 1787405994 | 31.11° C | 57% | 1016.9 hPa | 0 mm | - | 165 W/m² | - |
| 1787405690 | 31.11° C | 58% | 1016.5 hPa | 0 mm | - | 151 W/m² | - |
| 1787405385 | 30.56° C | 59% | 1016.5 hPa | 0 mm | - | 166 W/m² | - |
| 1787405081 | 30.56° C | 59% | 1016.5 hPa | 0 mm | - | 147 W/m² | - |
| 1787404777 | 30.56° C | 59% | 1016.4 hPa | 0 mm | - | 124 W/m² | - |
| 1787404473 | 30.56° C | 60% | 1016.4 hPa | 0 mm | - | 114 W/m² | - |
| 1787404172 | 30.56° C | 60% | 1016.2 hPa | 0 mm | - | 100 W/m² | - |
| 1787403867 | 30° C | 62% | 1016.2 hPa | 0 mm | - | 96 W/m² | - |
| 1787403562 | 30° C | 65% | 1016.2 hPa | 0 mm | - | 89 W/m² | - |
* Rain latest hour (hover to see other rain measurements)
** Current wind speed in m/s (hover to see current wind gust speed)